Cloud_Cover
0 0 0 16 100 9 63 92 99 29 66 90 0 0 0 0 0 0 0 0 0 0 0 0 0 4 0 0 0 0 0 0 0 0 5 0 0 0 0 0 0 0 0 0
0 0 0 100 82 64 17 42 2 74 94 0 0 2 4 0 0 0 0 0 0 0 1 1 0 0 0 3 0 0 0 2 0 0 0 0 0 0 0 0 0 0 0 0
0 0 2 50 92 100 24 28 5 42 26 2 0 0 0 0 0 0 0 0 0 0 5 3 3 5 0 0 0 0 0 0 0 0 0 0 0 0 0 0 0 0 0 0
0 0 2 5 40 91 54 22 4 5 0 2 1 0 0 2 0 0 0 0 0 0 0 0 0 0 0 0 0 0 0 0 0 0 0 0 0 0 0 0 0 0 0 0
0 3 9 13 5 100 15 92 30 3 6 5 5 1 5 4 1 4 0 0 0 0 0 0 0 0 0 0 0 0 0 0 0 0 0 0 0 0 0 0 0 0 0 0
0 0 24 100 12 100 71 84 38 5 59 4 2 2 5 5 1 5 0 0 0 0 0 0 0 0 0 0 0 0 0 0 0 0 0 0 0 0 0 0 0 0 0 0
0 0 0 1 5 48 76 93 63 13 5 12 2 2 2 0 1 0 0 0 0 0 0 0 0 0 0 0 0 0 0 0 0 0 0 0 0 0 0 0 0 0 0 0
0 0 0 0 0 5 33 46 94 4 0 13 5 3 2 0 5 0 0 0 0 0 0 0 0 0 0 0 0 0 0 0 0 0 0 0 0 0 0 0 0 0 0 0
0 0 0 0 1 4 8 25 99 1 5 27 89 12 4 0 0 0 0 0 0 0 0 0 0 0 0 0 0 0 0 0 0 0 0 0 0 0 0 0 0 0 0 0
0 0 0 0 0 3 24 14 71 0 18 2 5 12 58 5 0 0 0 0 0 0 0 0 0 0 0 0 0 0 0 0 0 0 0 0 0 0 0 0 0 0 0 0
0 0 0 0 0 0 0 5 4 0 3 2 72 58 5 5 1 0 0 0 0 0 0 0 0 0 0 0 0 0 0 0 0 0 0 0 0 0 0 0 0 0 0 0
0 0 0 0 0 0 0 0 5 2 0 0 5 3 7 21 5 0 0 0 0 0 0 0 0 0 0 0 0 0 0 0 0 0 0 0 0 0 0 0 0 4 52 92
0 0 0 0 0 0 1 0 2 0 0 0 2 16 69 7 7 2 0 0 0 0 0 0 0 0 0 0 0 0 0 0 0 0 0 0 0 0 0 0 17 47 100 100
0 0 0 0 0 0 0 0 0 0 0 0 0 42 21 7 1 4 0 0 0 0 0 0 0 0 0 0 0 0 0 0 0 0 0 0 0 0 6 24 100 100 100 100
0 0 0 0 0 0 0 0 0 0 0 0 0 7 5 0 5 0 0 0 0 0 0 0 0 0 0 0 0 3 0 0 0 0 0 0 4 0 0 52 100 100 100 68
0 0 0 0 0 0 0 0 0 0 0 0 0 0 5 4 23 42 5 0 0 0 0 0 0 1 1 5 5 3 0 0 0 0 2 0 0 0 3 63 70 100 96 5
0 0 0 0 0 0 0 0 0 0 0 0 0 0 0 6 27 5 5 4 5 5 0 0 0 5 6 6 5 0 0 0 0 2 6 0 0 0 24 42 95 66 5 41
0 0 0 0 0 0 0 0 0 0 0 0 0 5 2 4 67 100 5 5 0 0 0 0 0 4 5 4 0 0 0 1 13 21 4 0 0 0 15 46 58 4 3 30
0 0 0 0 0 0 0 0 0 0 0 0 0 4 5 5 41 5 36 4 1 0 0 0 0 4 5 0 0 11 26 28 14 23 7 0 0 0 0 14 2 0 0 5
0 0 0 0 0 0 0 0 0 0 0 0 0 5 5 0 4 5 0 5 3 5 0 0 0 5 0 14 0 1 38 15 28 9 1 0 0 4 5 0 5 0 0 0
0 0 0 0 0 0 0 0 0 0 0 0 0 1 96 1 0 3 0 0 0 0 0 0 19 12 9 3 0 16 14 24 12 0 0 2 30 21 2 0 0 0 0 16
0 0 0 0 0 0 0 0 0 0 0 0 0 0 23 7 0 0 0 1 4 1 0 2 75 24 17 0 0 0 10 20 0 0 1 40 37 2 0 0 0 0 0 2
0 0 0 0 0 0 3 0 0 0 0 0 0 0 1 5 0 0 0 0 0 0 0 5 8 44 12 0 0 8 44 0 0 0 23 39 2 0 0 0 0 0 0 0
0 0 0 0 0 0 0 2 0 0 0 0 0 0 0 0 0 0 0 0 0 0 0 2 5 37 45 0 0 0 0 0 0 0 18 0 0 0 1 0 0 0 0 0
0 0 0 0 0 0 0 5 0 0 0 0 0 0 0 2 5 2 0 0 0 0 0 0 1 35 33 2 0 0 0 0 17 23 0 1 3 1 0 0 0 0 1 0
1 0 0 0 0 0 0 5 0 0 0 0 0 0 0 0 0 9 40 4 4 5 6 10 25 37 22 0 0 0 0 18 78 31 0 0 0 0 0 0 0 2 5 5